Change the Weather History Date:

Friday, October 5, 2012

  Actual Average Record
Temperature  
Mean Temperature 40 °F -  
Max Temperature 46 °F 0 °F 84 °F (2007)
Min Temperature 35 °F - 28 °F (2004)
Degree Days  
Heating Degree Days 24    
Moisture  
Dew Point 26 °F    
Average Humidity 55    
Maximum Humidity 81    
Minimum Humidity 37    
Precipitation  
Precipitation 0.00 in - - ()
Sea Level Pressure  
Sea Level Pressure 30.10 in    
Wind  
Wind Speed 14 mph (West)    
Max Wind Speed 23 mph    
Max Gust Speed 29 mph    
Visibility 10 miles    
Events      
Averages and records for this station are not official NWS values.
T = Trace of Precipitation, MM = Missing Value Source: NWS Daily Summary

Daily Weather History Graph

Daily Weather History Graph

Search for Another Location

Airport or City:

Trip Planner

Search our weather history database for the weather conditions in past years. The results will help you decide how hot, cold, wet, or windy it might be!

Date:

Astronomy

Oct. 05, 2012 Rise Set
Actual Time 7:00 AM CDT 6:31 PM CDT
Civil Twilight 6:32 AM CDT 7:00 PM CDT
Nautical Twilight 5:59 AM CDT 7:32 PM CDT
Astronomical Twilight 5:26 AM CDT 8:05 PM CDT
Moon 9:49 PM CDT (10/5) 12:14 PM CDT (10/5)
Length of Visible Light 12h 27m
Length of Day
11h 31m
Waning Gibbous, 74% of the Moon is Illuminated
Oct 5
Waning Gibbous
Oct 8
Last Quarter
Oct 15
New
Oct 21
First Quarter
Oct 29
Full

Hourly Weather History & Observations

Time (CDT) Temp. Windchill Dew Point Humidity Pressure Visibility Wind Dir Wind Speed Gust Speed Precip Events Conditions
12:15 AM 42.8 °F 35.8 °F 30.2 °F 61% 30.11 in 10.0 mi WNW 13.8 mph 21.9 mph N/A   Clear
12:35 AM 42.8 °F 36.2 °F 30.2 °F 61% 30.11 in 10.0 mi WNW 12.7 mph 17.3 mph N/A   Clear
12:55 AM 42.8 °F 36.6 °F 30.2 °F 61% 30.12 in 10.0 mi WNW 11.5 mph - N/A   Clear
1:15 AM 42.8 °F 38.0 °F 30.2 °F 61% 30.13 in 10.0 mi West 8.1 mph - N/A   Clear
1:35 AM 41.0 °F 35.2 °F 30.2 °F 65% 30.14 in 10.0 mi West 9.2 mph - N/A   Clear
1:55 AM 41.0 °F 35.2 °F 30.2 °F 65% 30.14 in 10.0 mi WSW 9.2 mph - N/A   Clear
2:15 AM 41.0 °F 34.3 °F 30.2 °F 65% 30.15 in 10.0 mi WSW 11.5 mph - N/A   Clear
2:35 AM 41.0 °F 34.3 °F 30.2 °F 65% 30.14 in 10.0 mi West 11.5 mph - N/A   Clear
2:55 AM 41.0 °F 34.7 °F 30.2 °F 65% 30.14 in 10.0 mi West 10.4 mph - N/A   Clear
3:15 AM 39.2 °F 33.0 °F 30.2 °F 70% 30.14 in 10.0 mi West 9.2 mph - N/A   Clear
3:35 AM 39.2 °F 33.0 °F 30.2 °F 70% 30.13 in 10.0 mi West 9.2 mph - N/A   Clear
3:55 AM 37.4 °F 30.3 °F 30.2 °F 75% 30.14 in 10.0 mi WSW 10.4 mph - N/A   Clear
4:15 AM 37.4 °F 30.3 °F 30.2 °F 75% 30.14 in 10.0 mi WSW 10.4 mph - N/A   Clear
4:35 AM 37.4 °F 29.8 °F 30.2 °F 75% 30.14 in 10.0 mi West 11.5 mph - N/A   Clear
4:55 AM 37.4 °F 29.3 °F 30.2 °F 75% 30.14 in 10.0 mi WSW 12.7 mph - N/A   Clear
5:15 AM 35.6 °F 27.1 °F 30.2 °F 81% 30.14 in 10.0 mi WSW 12.7 mph - N/A   Clear
5:35 AM 37.4 °F 29.8 °F 30.2 °F 75% 30.14 in 10.0 mi WSW 11.5 mph - N/A   Clear
5:55 AM 35.6 °F 27.1 °F 30.2 °F 81% 30.14 in 10.0 mi WSW 12.7 mph - N/A   Clear
6:15 AM 35.6 °F 26.6 °F 30.2 °F 81% 30.14 in 10.0 mi West 13.8 mph - N/A   Clear
6:35 AM 35.6 °F 26.2 °F 30.2 °F 81% 30.14 in 10.0 mi West 15.0 mph - N/A   Clear
6:55 AM 37.4 °F 28.5 °F 30.2 °F 75% 30.14 in 10.0 mi West 15.0 mph - N/A   Clear
7:15 AM 35.6 °F 26.2 °F 30.2 °F 81% 30.15 in 10.0 mi West 15.0 mph - N/A   Clear
7:35 AM 35.6 °F 25.9 °F 30.2 °F 81% 30.15 in 10.0 mi West 16.1 mph - N/A   Clear
7:55 AM 37.4 °F 28.2 °F 30.2 °F 75% 30.14 in 10.0 mi West 16.1 mph 24.2 mph N/A   Clear
8:35 AM 41.0 °F 31.9 °F 30.2 °F 65% 30.14 in 10.0 mi West 19.6 mph 27.6 mph N/A   Clear
8:55 AM 41.0 °F 33.1 °F 30.2 °F 65% 30.13 in 10.0 mi West 15.0 mph 25.3 mph N/A   Clear
9:15 AM 41.0 °F 31.4 °F 30.2 °F 65% 30.13 in 10.0 mi West 21.9 mph 27.6 mph N/A   Clear
9:35 AM 42.8 °F 34.3 °F 30.2 °F 61% 30.13 in 10.0 mi WNW 19.6 mph 28.8 mph N/A   Clear
9:55 AM 44.6 °F 36.9 °F 28.4 °F 53% 30.13 in 10.0 mi West 18.4 mph 24.2 mph N/A   Clear
10:15 AM 42.8 °F 33.8 °F 28.4 °F 57% 30.13 in 10.0 mi West 21.9 mph 27.6 mph N/A   Clear
10:35 AM 42.8 °F 34.8 °F 28.4 °F 57% 30.12 in 10.0 mi West 17.3 mph 25.3 mph N/A   Clear
10:55 AM 44.6 °F 37.2 °F 28.4 °F 53% 30.13 in 10.0 mi West 17.3 mph 24.2 mph N/A   Clear
11:15 AM 44.6 °F 37.4 °F 28.4 °F 53% 30.13 in 10.0 mi West 16.1 mph 24.2 mph N/A   Clear
11:35 AM 46.4 °F 40.1 °F 28.4 °F 50% 30.12 in 10.0 mi West 15.0 mph 20.7 mph N/A   Clear
11:55 AM 46.4 °F 39.8 °F 28.4 °F 50% 30.11 in 10.0 mi West 16.1 mph - N/A   Clear
12:15 PM 46.4 °F 40.1 °F 23.0 °F 40% 30.11 in 10.0 mi West 15.0 mph - N/A   Clear
12:35 PM 46.4 °F 39.8 °F 23.0 °F 40% 30.11 in 10.0 mi West 16.1 mph 21.9 mph N/A   Clear
12:55 PM 46.4 °F 39.5 °F 24.8 °F 43% 30.10 in 10.0 mi West 17.3 mph 21.9 mph N/A   Clear
1:35 PM 44.6 °F 37.8 °F 23.0 °F 43% 30.08 in 10.0 mi WSW 15.0 mph 24.2 mph N/A   Scattered Clouds
1:55 PM 44.6 °F 36.9 °F 23.0 °F 43% 30.08 in 10.0 mi WSW 18.4 mph - N/A   Mostly Cloudy
2:15 PM 44.6 °F 36.9 °F 23.0 °F 43% 30.08 in 10.0 mi WSW 18.4 mph 23.0 mph N/A   Overcast
2:35 PM 46.4 °F 38.7 °F 23.0 °F 40% 30.07 in 10.0 mi West 20.7 mph 26.5 mph N/A   Mostly Cloudy
2:55 PM 46.4 °F 38.5 °F 21.2 °F 37% 30.08 in 10.0 mi West 21.9 mph 27.6 mph N/A   Scattered Clouds
3:15 PM 44.6 °F 37.2 °F 21.2 °F 39% 30.09 in 10.0 mi West 17.3 mph 25.3 mph N/A   Clear
3:35 PM 44.6 °F 35.9 °F 21.2 °F 39% 30.09 in 10.0 mi West 23.0 mph - N/A   Clear
3:55 PM 44.6 °F 36.4 °F 19.4 °F 37% 30.07 in 10.0 mi West 20.7 mph 24.2 mph N/A   Clear
4:15 PM 44.6 °F 36.9 °F 21.2 °F 39% 30.07 in 10.0 mi West 18.4 mph 27.6 mph N/A   Clear
4:35 PM 44.6 °F 36.9 °F 21.2 °F 39% 30.07 in 10.0 mi West 18.4 mph 26.5 mph N/A   Scattered Clouds
4:55 PM 44.6 °F 36.9 °F 21.2 °F 39% 30.07 in 10.0 mi West 18.4 mph 23.0 mph N/A   Scattered Clouds
5:15 PM 44.6 °F 36.4 °F 21.2 °F 39% 30.08 in 10.0 mi West 20.7 mph - N/A   Scattered Clouds
5:35 PM 44.6 °F 37.2 °F 21.2 °F 39% 30.07 in 10.0 mi West 17.3 mph 23.0 mph N/A   Scattered Clouds
5:55 PM 44.6 °F 37.4 °F 21.2 °F 39% 30.07 in 10.0 mi WSW 16.1 mph - N/A   Scattered Clouds
6:15 PM 44.6 °F 38.4 °F 21.2 °F 39% 30.07 in 10.0 mi West 12.7 mph 19.6 mph N/A   Clear
6:35 PM 42.8 °F 35.4 °F 21.2 °F 42% 30.07 in 10.0 mi West 15.0 mph - N/A   Clear
6:55 PM 42.8 °F 35.4 °F 21.2 °F 42% 30.07 in 10.0 mi West 15.0 mph - N/A   Clear
7:15 PM 42.8 °F 35.4 °F 21.2 °F 42% 30.06 in 10.0 mi West 15.0 mph - N/A   Clear
7:35 PM 42.8 °F 35.8 °F 21.2 °F 42% 30.06 in 10.0 mi WSW 13.8 mph - N/A   Clear
7:55 PM 42.8 °F 35.8 °F 21.2 °F 42% 30.06 in 10.0 mi West 13.8 mph - N/A   Clear
8:15 PM 41.0 °F 33.9 °F 21.2 °F 45% 30.06 in 10.0 mi West 12.7 mph - N/A   Clear
8:35 PM 41.0 °F 33.9 °F 21.2 °F 45% 30.07 in 10.0 mi West 12.7 mph - N/A   Clear
8:55 PM 41.0 °F 33.9 °F 21.2 °F 45% 30.07 in 10.0 mi West 12.7 mph - N/A   Clear
9:15 PM 41.0 °F 34.3 °F 19.4 °F 42% 30.07 in 10.0 mi West 11.5 mph - N/A   Clear
9:35 PM 41.0 °F 33.9 °F 19.4 °F 42% 30.07 in 10.0 mi West 12.7 mph - N/A   Clear
9:55 PM 41.0 °F 33.9 °F 19.4 °F 42% 30.07 in 10.0 mi West 12.7 mph - N/A   Clear
10:35 PM 39.2 °F 31.6 °F 19.4 °F 45% 30.07 in 10.0 mi West 12.7 mph - N/A   Clear
10:55 PM 39.2 °F 31.6 °F 21.2 °F 49% 30.07 in 10.0 mi West 12.7 mph - N/A   Clear
11:15 PM 37.4 °F 29.8 °F 21.2 °F 52% 30.07 in 10.0 mi West 11.5 mph - N/A   Clear
11:35 PM 37.4 °F 28.9 °F 21.2 °F 52% 30.07 in 10.0 mi West 13.8 mph - N/A   Clear
11:55 PM 35.6 °F 27.5 °F 21.2 °F 56% 30.07 in 10.0 mi West 11.5 mph - N/A   Clear